Location: Brede
(50.9167°N, 0.6000°E)
Time: 00:07:15
(UTC+00:00)

Okean 1 Rocket - Pass Details

Date: 08 August 2020
Orbit: 607 x 633 km, 82.5° (Epoch: 19 September)

Event Time Altitude Azimuth Distance (km) Brightness Sun altitude
Exits shadow 01:18:56 34° 135° (SE) 1,020 3.9 -21.0°
Maximum altitude 01:20:11 43° 93° (E) 865 3.9 -20.9°
Drops below altitude 10° 01:24:20 10° 22° (NNE) 1,980 6.8 -20.7°
Sets 01:26:38 0° 16° (NNE) 2,893 8.1 -20.6°
